Simultaneous Nadir Overpasses (SNOs) Predictions

Prediction of SNOs between AQUA and METOP-A Satellite Orbit:

Table of predicted SNOs for the next 14.0 days since TLE Epoch: 10/26/2012
Index Date (AQUA) Time (AQUA) AQUA Lat,Lon Date (METOP-A) Time (METOP-A) METOP-A Lat,Lon Distance(km) Time Diff (sec)
1 10/28/2012 13:39:16 -73.77, 149.45 10/28/2012 13:38:11 -73.78, 149.47 1.52 65
2 10/28/2012 14:28:45 73.85, -43.08 10/28/2012 14:28:49 73.84, -43.05 1.30 4
3 10/28/2012 15:18:15 -74.08, 124.03 10/28/2012 15:19:26 -74.10, 124.91 27.01 71
4 10/31/2012 09:13:25 -73.79,-144.13 10/31/2012 09:12:28 -73.78,-144.11 1.12 57
5 10/31/2012 10:02:53 73.82, 23.44 10/31/2012 10:03:06 73.84, 23.36 3.19 13
6 10/31/2012 10:52:30 -74.41,-170.28 10/31/2012 10:53:37 -74.39,-167.93 70.10 67
7 11/03/2012 04:47:33 -73.78, -77.64 11/03/2012 04:46:45 -73.76, -77.72 2.94 48
8 11/03/2012 05:37:02 73.87, 89.80 11/03/2012 05:37:22 73.87, 89.86 1.79 20
9 11/06/2012 00:21:40 -73.80, -11.21 11/06/2012 00:21:00 -73.78, -11.24 1.67 40
10 11/06/2012 01:11:09 73.89, 156.22 11/06/2012 01:11:37 73.88, 156.33 3.40 28
11 11/08/2012 19:55:44 -73.79, 55.29 11/08/2012 19:55:13 -73.79, 55.21 2.50 31
12 11/08/2012 20:45:13 73.89,-137.29 11/08/2012 20:45:50 73.89,-137.22 2.08 37




NCC Satellite Simultaneous Nadir Overpasses (SNOs) Prediction Service
